THORAD AGENA D DEB, 5690

Orbit data source: Space-Track

THORAD AGENA D DEB, 5690 is space debris in SSO originally from a launch on Wed, 08 Apr 1970 UTC launched from the Air Force Western Test Range (AFWTR). Debris objects in space refer to the collection of defunct objects orbiting the Earth. Examples of debris include non-operational satellites, rocket bodies, and fragments generated from explosions, collisions, or faulty payload assembly.

Loading next visibility...
Identifier
5690, 1970-025LV
Orbit
SSO
Country
Flag of USUS
Related business
Manufacturer
Unknown
Mission
Spacecraft
Bus & Motor
Unknown
Mass
Unknown
Launch date (UTC)
1970-04-08 (56 years ago)
Launch vehicle
Unknown
Launch site
Air Force Western Test Range (AFWTR)
Object type
Payload
Rocket body
Debris
Shape & HBR
Unknown shape, 0.1 m
Radar Cross Section
Small (<0.1 m²)

Expand to show TLE details & history
Last TLE update: 8 hours ago

TLE from 8 hours ago
0 THORAD AGENA D DEB
1 05690U 70025LV  25287.80290069  .00000124  00000-0  26187-3 0  9996
2 05690 100.1990 291.9040 0048574 318.9281 220.4047 13.51546370733239
Epoch: 2025-10-14T19:16Z
TLE epoch observation values (Epoch: 2025-10-14T19:16:10.619Z)
Latitude
0.90418°
Longitude
159.43551°
Altitude
1,096.847 km
Speed
7.29 km/s
True Right ascension
07h 28m 15s
True Declination
0° 53' 56"
Sunlit
Object was in daylight at epoch
Visualization orbit readout
Latitude
Unknown
Longitude
Unknown
Altitude
Unknown
Speed
Unknown
Apparent Right ascension
Unknown
Apparent Declination
Unknown
Sunlit
N/A
Visualization observer readout
Local Sidereal Time
22:01:22
Azimuth
Unknown
Elevation
Unknown
Doppler factor
Unknown
Orbital elements
Apogee altitude
1,100.049 km
Perigee altitude
1,027.751 km
Semi-major axis
7,442.037 km
Eccentricity
0.00486
Inclination
100.199°
RAAN
291.904°
Arg. of periapsis
318.9281°
True anomaly
220.04557°
Mean anomaly
220.4047°
Eccentric anomaly
220.22497°
Mean motion
3.38069 °/min
Orbital period
106.49 mins
BSTAR
0.00026187

Documentation

Showing up to 5 results
|